This demonstration page uses our WeatherBlox Daily Observations layout. Learn more.

41.55636, -103.73856

Hourly Observations for March 2, 2015

Temp ( °F °C ) Dew Point ( °F °C ) Humidity (%) Winds ( mph kmh ) Pressure ( in mb ) Visibility ( mi km ) Precip ( " mm )
12:53 am 00:53 Mostly Clear 26 -3.3 18 -7.8 71 71 SE 9 15 30.27 1025 10 16.0934 0 0
1:53 am 01:53 Mostly Clear 27 -2.8 18 -7.8 69 69 ESE 9 15 30.23 1024 10 16.0934 0 0
2:53 am 02:53 Partly Cloudy 27 -2.8 17 -8.3 66 66 ESE 7 11 30.19 1022 10 16.0934 0 0
3:53 am 03:53 Cloudy 30 -1.1 18 -7.8 61 61 SSE 10 17 30.17 1022 10 16.0934 0 0
4:53 am 04:53 Cloudy 30 -1.1 19 -7.2 64 64 SSE 12 19 30.14 1021 10 16.0934 0 0
5:53 am 05:53 Cloudy 30 -1.1 19 -7.2 64 64 SSE 12 19 30.14 1021 10 16.0934 0 0
6:53 am 06:53 Cloudy 29 -1.7 20 -6.7 69 69 SSE 13 20 30.12 1020 10 16.0934 0 0
7:53 am 07:53 Mostly Cloudy 31 -0.6 21 -6.1 67 67 SSE 13 20 30.11 1020 10 16.0934 0 0
8:53 am 08:53 Mostly Cloudy 34 1.1 21 -6.1 59 59 SSE 20 31 30.06 1018 10 16.0934 0 0
9:53 am 09:53 Sunny 36 2.2 22 -5.6 57 57 SSE 21 33 30.02 1017 10 16.0934 0 0
10:53 am 10:53 Sunny 39 3.9 23 -5 53 53 S 13 20 29.98 1015 10 16.0934 0 0
11:53 am 11:53 Mostly Cloudy 39 4 23 -5 52 52 SSE 10 17 29.91 1013 10 16.0934 0 0
12:53 pm 12:53 Sunny 43 6.1 24 -4.4 47 47 S 15 24 29.85 1011 10 16.0934 0 0
1:53 pm 13:53 Sunny 46 7.8 24 -4.4 42 42 SE 12 19 29.78 1009 10 16.0934 0 0
2:53 pm 14:53 Sunny 46 7.8 24 -4.4 42 42 SSE 14 22 29.75 1008 10 16.0934 0 0
3:53 pm 15:53 Sunny 46 7.8 25 -3.9 44 44 SE 13 20 29.71 1006 10 16.0934 0 0
4:53 pm 16:53 Sunny 42 5.6 26 -3.3 53 53 ESE 21 33 29.69 1006 9 14.48406 0 0
5:53 pm 17:53 undefined 35 1.7 24 -4.4 64 64 ESE 16 26 29.69 1005 8 12.87472 0 0
6:53 pm 18:53 Clear 30 -1.1 23 -5 75 75 ESE 14 22 29.7 1006 8 12.87472 0 0
7:53 pm 19:53 Clear 29 -1.7 23 -5 78 78 ESE 13 20 29.67 1005 7 11.26538 0 0
8:53 pm 20:53 Mostly Clear 29 -1.7 24 -4.4 82 82 ESE 7 11 29.72 1006 7 11.26538 0 0
9:53 pm 21:53 Cloudy 30 -1.1 24 -4.4 79 79 E 10 17 29.7 1006 7 11.26538 0 0
10:32 pm 22:32 Cloudy with Light Snow 30 -1 25 -4 80 80 E 12 19 29.71 1006 1.75 2.816345 0 0
10:39 pm 22:39 Cloudy with Light Snow 30 -1.1 26 -3.3 85 85 ESE 9 15 29.71 1006 3 4.82802 0 0.0254
10:53 pm 22:53 Cloudy with Light Wintry Mix 30 -1.1 26 -3.3 85 85 ESE 7 11 29.63 1003 5 8.0467 0 0.0254
11:18 pm 23:18 Cloudy with Light Snow 30 -1 27 -3 86 86 Calm 29.71 1006 1.75 2.816345 0 0
11:39 pm 23:39 Cloudy with Light Snow 29 -1.7 27 -2.8 92 92 NW 6 9 29.74 1007 0.75 1.207005 0.02 0.508
11:53 pm 23:53 Cloudy with Light Snow 29 -1.7 28 -2.2 96 96 N 7 11 29.65 1004 1 1.60934 0.03 0.762

Powered by AerisWeather